This is the latest recevied weather packets stored in our database for station/object WR7DW-3. If no packets are shown the sender has not sent any weather packets the latest 10 day(s).
| Time | Temp. | Humidity | Pressure | Rain* | Wind** | Luminosity | Snow |
|---|---|---|---|---|---|---|---|
| 1777958086 | 0° C | 66% | 1008.8 hPa | 0 mm | - | - | - |
| 1777957180 | 0° C | 67% | 1008.4 hPa | 0 mm | - | - | - |
| 1777956280 | 0° C | 68% | 1008.2 hPa | 0 mm | - | - | - |
| 1777955380 | 0° C | 69% | 1008.4 hPa | 0 mm | - | - | - |
| 1777954480 | 0° C | 69% | 1008.1 hPa | 0 mm | - | - | - |
| 1777953580 | -0.56° C | 72% | 1007.9 hPa | 0 mm | - | - | - |
| 1777952680 | -0.56° C | 74% | 1007.8 hPa | 0 mm | - | - | - |
| 1777950880 | 0° C | 74% | 1007.4 hPa | 0 mm | - | - | - |
| 1777949980 | 0° C | 73% | 1007.2 hPa | 0 mm | - | - | - |
| 1777949080 | 0.56° C | 72% | 1007 hPa | 0 mm | - | - | - |
| 1777948180 | 1.11° C | 70% | 1007 hPa | 0 mm | - | - | - |
| 1777947280 | 1.11° C | 70% | 1007 hPa | 0 mm | - | - | - |
| 1777946381 | 2.22° C | 68% | 1006.7 hPa | 0 mm | - | - | - |
| 1777945481 | 2.22° C | 67% | 1006.7 hPa | 0 mm | - | - | - |
| 1777944581 | 2.78° C | 66% | 1006.7 hPa | 0 mm | - | - | - |
| 1777942781 | 3.89° C | 65% | 1006.5 hPa | 0 mm | - | - | - |
| 1777941881 | 3.33° C | 66% | 1006.6 hPa | 0 mm | - | - | - |
| 1777940983 | 3.89° C | 66% | 1006.4 hPa | 0 mm | - | - | - |
| 1777940081 | 2.78° C | 68% | 1006.4 hPa | 0 mm | - | - | - |
| 1777939181 | 2.78° C | 68% | 1006.5 hPa | 0 mm | - | - | - |
| 1777938281 | 3.33° C | 66% | 1006.3 hPa | 0 mm | - | - | - |
| 1777937383 | 3.33° C | 67% | 1006.5 hPa | 0 mm | - | - | - |
| 1777936481 | 2.78° C | 68% | 1006.3 hPa | 0 mm | - | - | - |
| 1777935581 | 2.78° C | 66% | 1006 hPa | 0 mm | - | - | - |
| 1777934681 | 2.78° C | 67% | 1006 hPa | 0 mm | - | - | - |
* Rain latest hour (hover to see other rain measurements)
** Current wind speed in m/s (hover to see current wind gust speed)